N1SD KLAX-

Flight info

Callsign N1SD
Flight time N/A
Altitude VFR/030
Route N
Aircraft EC45/L-VGD/C

Departure

Time 2026-04-25 04:39
Airport Los Angeles International Airport (KLAX)

Arrival

Time N/A
Airport -
Time Latitude Longitude Altitude Speed Heading
2026-04-25 04:30 33.93405 -118.39579 104 ft 0 kts 86°
2026-04-25 04:34 33.93412 -118.39593 107 ft 5 kts
2026-04-25 04:34 33.93399 -118.39628 174 ft 8 kts 271°
2026-04-25 04:34 33.93388 -118.39841 276 ft 44 kts 258°
2026-04-25 04:35 33.93322 -118.40385 343 ft 84 kts 262°
2026-04-25 04:35 33.93239 -118.41183 315 ft 105 kts 257°
2026-04-25 04:35 33.93161 -118.42079 389 ft 111 kts 261°
2026-04-25 04:35 33.93095 -118.43014 364 ft 120 kts 263°
2026-04-25 04:36 33.93420 -118.43831 166 ft 116 kts 341°
2026-04-25 04:36 33.94149 -118.44186 149 ft 114 kts 334°
2026-04-25 04:36 33.94846 -118.44603 155 ft 111 kts 327°
2026-04-25 04:36 33.95497 -118.44993 246 ft 103 kts 332°
2026-04-25 04:37 33.96192 -118.45179 283 ft 104 kts
2026-04-25 04:37 33.96858 -118.44870 322 ft 101 kts 25°
2026-04-25 04:37 33.97416 -118.44295 313 ft 103 kts 45°
2026-04-25 04:37 33.97884 -118.43720 415 ft 95 kts 46°
2026-04-25 04:38 33.98320 -118.43124 474 ft 97 kts 56°
2026-04-25 04:38 33.98641 -118.42395 524 ft 101 kts 62°
2026-04-25 04:38 33.98989 -118.41632 542 ft 106 kts 63°
2026-04-25 04:38 33.99261 -118.40807 578 ft 107 kts 71°
2026-04-25 04:39 33.99462 -118.39930 588 ft 108 kts 75°
2026-04-25 04:39 33.99648 -118.39055 609 ft 108 kts 76°
2026-04-25 04:39 33.99826 -118.38196 663 ft 101 kts 72°
2026-04-25 04:39 34.00000 -118.37414 792 ft 99 kts 74°
2026-04-25 04:40 34.00211 -118.36618 865 ft 99 kts 73°
2026-04-25 04:40 34.00381 -118.35822 951 ft 105 kts 68°
2026-04-25 04:40 34.00835 -118.35079 956 ft 114 kts 52°
2026-04-25 04:40 34.01110 -118.34186 1016 ft 112 kts 71°
2026-04-25 04:41 34.01441 -118.33315 1011 ft 117 kts 59°
2026-04-25 04:41 34.01767 -118.32449 1054 ft 106 kts 66°
2026-04-25 04:41 34.01982 -118.31640 1124 ft 98 kts 73°
2026-04-25 04:41 34.02124 -118.30821 1046 ft 113 kts 76°
2026-04-25 04:42 34.02546 -118.29972 952 ft 119 kts 47°
2026-04-25 04:42 34.03056 -118.29181 949 ft 120 kts 52°
2026-04-25 04:42 34.03544 -118.28365 956 ft 120 kts 48°
2026-04-25 04:42 34.04206 -118.27731 1008 ft 121 kts 34°
2026-04-25 04:43 34.04854 -118.27083 1079 ft 123 kts 37°
2026-04-25 04:43 34.05217 -118.26398 1322 ft 65 kts 114°
2026-04-25 04:43 34.05380 -118.26053 1148 ft 21 kts 182°
2026-04-25 04:43 34.05236 -118.25999 773 ft 24 kts 239°
2026-04-25 04:44 34.05184 -118.26161 659 ft 15 kts 234°
2026-04-25 04:44 34.05171 -118.26199 620 ft 6 kts 230°
2026-04-25 04:44 34.05156 -118.26215 605 ft 1 kts 236°
2026-04-25 04:44 34.05154 -118.26218 599 ft 0 kts 245°
2026-04-25 04:49 34.05153 -118.26218 599 ft 0 kts 248°
2026-04-25 04:49 34.05151 -118.26220 603 ft 2 kts 251°
2026-04-25 04:49 34.05152 -118.26226 613 ft 2 kts 246°
2026-04-25 04:50 34.05163 -118.26249 634 ft 4 kts 254°
2026-04-25 04:50 34.05157 -118.26283 636 ft 6 kts 259°
2026-04-25 04:50 34.05158 -118.26333 647 ft 4 kts 271°
2026-04-25 04:50 34.05133 -118.26362 651 ft 7 kts 291°
2026-04-25 04:51 34.05158 -118.26472 659 ft 17 kts 268°
2026-04-25 04:51 34.05181 -118.26641 674 ft 29 kts 249°
2026-04-25 04:51 34.05203 -118.27008 802 ft 57 kts 278°
2026-04-25 04:51 34.05267 -118.27590 842 ft 81 kts 277°
2026-04-25 04:52 34.05259 -118.28344 749 ft 102 kts 259°
2026-04-25 04:52 34.05146 -118.29283 602 ft 120 kts 261°
2026-04-25 04:52 34.04985 -118.30302 561 ft 124 kts 248°
2026-04-25 04:52 34.04728 -118.31178 857 ft 104 kts 250°
2026-04-25 04:53 34.04502 -118.31997 984 ft 104 kts 252°
2026-04-25 04:53 34.04302 -118.32847 1112 ft 106 kts 255°
2026-04-25 04:53 34.04125 -118.33708 1232 ft 106 kts 257°
2026-04-25 04:53 34.03867 -118.34574 1200 ft 121 kts 237°
2026-04-25 04:54 34.03184 -118.35358 825 ft 141 kts 214°
2026-04-25 04:54 34.02445 -118.36042 783 ft 134 kts 218°
2026-04-25 04:54 34.01736 -118.36788 713 ft 126 kts 214°
2026-04-25 04:54 34.01110 -118.37466 757 ft 120 kts 227°
2026-04-25 04:55 34.00579 -118.38198 818 ft 112 kts 225°
2026-04-25 04:55 34.00120 -118.38939 822 ft 109 kts 234°
2026-04-25 04:55 33.99674 -118.39663 743 ft 108 kts 233°
2026-04-25 04:55 33.99231 -118.40389 733 ft 105 kts 225°
2026-04-25 04:56 33.98649 -118.40916 649 ft 111 kts 214°
2026-04-25 04:56 33.97952 -118.41449 441 ft 120 kts 203°
2026-04-25 04:56 33.97205 -118.41809 421 ft 113 kts 198°
2026-04-25 04:56 33.96490 -118.42010 447 ft 106 kts 182°
2026-04-25 04:57 33.95818 -118.41679 451 ft 105 kts 155°
2026-04-25 04:57 33.95071 -118.41419 313 ft 111 kts 172°
2026-04-25 04:57 33.94351 -118.41249 299 ft 97 kts 173°
2026-04-25 04:57 33.93729 -118.41059 276 ft 100 kts 142°
2026-04-25 04:58 33.93460 -118.40305 271 ft 102 kts 91°
2026-04-25 04:58 33.93534 -118.39597 333 ft 64 kts 159°
2026-04-25 04:58 33.93412 -118.39413 185 ft 19 kts 274°
2026-04-25 04:58 33.93418 -118.39546 104 ft 1 kts 273°
2026-04-25 05:01 33.93424 -118.39566 127 ft 15 kts 277°
2026-04-25 05:01 33.93404 -118.39920 195 ft 72 kts 257°
2026-04-25 05:01 33.93333 -118.40666 217 ft 104 kts 259°
2026-04-25 05:01 33.93272 -118.41265 275 ft 110 kts 259°
2026-04-25 05:02 33.93143 -118.42162 508 ft 110 kts 255°
2026-04-25 05:02 33.93080 -118.43182 450 ft 130 kts 268°
2026-04-25 05:02 33.93650 -118.43957 198 ft 132 kts 336°
2026-04-25 05:02 33.94441 -118.44260 285 ft 108 kts 329°
2026-04-25 05:03 33.95067 -118.44676 309 ft 94 kts 328°
2026-04-25 05:03 33.95719 -118.44790 266 ft 98 kts 12°
2026-04-25 05:03 33.96277 -118.44405 321 ft 89 kts 30°
2026-04-25 05:03 33.96787 -118.44021 336 ft 86 kts 38°
2026-04-25 05:04 33.97102 -118.43400 331 ft 86 kts 62°
2026-04-25 05:04 33.97452 -118.42817 313 ft 84 kts 51°
2026-04-25 05:04 33.97781 -118.42255 366 ft 79 kts 53°
2026-04-25 05:04 33.98081 -118.41714 425 ft 76 kts 50°
2026-04-25 05:05 33.98418 -118.41250 480 ft 75 kts 46°
2026-04-25 05:05 33.98770 -118.40775 508 ft 77 kts 45°
2026-04-25 05:05 33.99041 -118.40224 513 ft 78 kts 71°
2026-04-25 05:05 33.99264 -118.39631 529 ft 77 kts 62°
2026-04-25 05:06 33.99498 -118.39069 605 ft 73 kts 61°
2026-04-25 05:06 33.99697 -118.38510 678 ft 71 kts 66°
2026-04-25 05:06 33.99944 -118.37987 710 ft 74 kts 63°
2026-04-25 05:06 34.00122 -118.37389 735 ft 77 kts 66°
2026-04-25 05:07 34.00353 -118.36794 756 ft 80 kts 62°
2026-04-25 05:07 34.00586 -118.36188 817 ft 77 kts 66°
2026-04-25 05:07 34.00775 -118.35595 888 ft 76 kts 65°
2026-04-25 05:07 34.00929 -118.34982 948 ft 76 kts 76°
2026-04-25 05:08 34.01100 -118.34347 899 ft 92 kts 64°
2026-04-25 05:08 34.01381 -118.33624 926 ft 95 kts 63°
2026-04-25 05:08 34.01650 -118.32886 947 ft 97 kts 65°
2026-04-25 05:08 34.01907 -118.32126 955 ft 99 kts 67°
2026-04-25 05:09 34.02204 -118.31364 959 ft 103 kts 56°
2026-04-25 05:09 34.02612 -118.30575 824 ft 115 kts 56°
2026-04-25 05:09 34.03079 -118.29778 776 ft 116 kts 49°
2026-04-25 05:09 34.03519 -118.28965 716 ft 114 kts 57°
2026-04-25 05:10 34.03862 -118.28091 641 ft 116 kts 64°
2026-04-25 05:10 34.04141 -118.27178 585 ft 110 kts 50°
2026-04-25 05:10 34.04729 -118.26705 701 ft 99 kts 25°
2026-04-25 05:10 34.05227 -118.26217 661 ft 90 kts 44°
2026-04-25 05:11 34.05330 -118.26065 823 ft 38 kts 199°
2026-04-25 05:11 34.05169 -118.26194 643 ft 5 kts 199°
2026-04-25 05:11 34.05180 -118.26189 608 ft 8 kts 220°
2026-04-25 05:12 34.05153 -118.26214 605 ft 0 kts 252°
2026-04-25 05:13 34.05152 -118.26215 605 ft 0 kts 270°
2026-04-25 05:13 34.05151 -118.26218 608 ft 2 kts 288°
2026-04-25 05:14 34.05152 -118.26289 606 ft 19 kts 276°
2026-04-25 05:14 34.05095 -118.26580 685 ft 51 kts 266°
2026-04-25 05:14 34.05004 -118.27194 689 ft 92 kts 259°
2026-04-25 05:15 34.04437 -118.28864 638 ft 117 kts 245°
2026-04-25 05:15 34.04120 -118.29734 705 ft 106 kts 245°
2026-04-25 05:15 34.03781 -118.30556 691 ft 109 kts 240°
2026-04-25 05:15 34.03478 -118.31432 659 ft 115 kts 249°
2026-04-25 05:16 34.03267 -118.32355 656 ft 115 kts 253°
2026-04-25 05:16 34.03030 -118.33277 706 ft 113 kts 249°
2026-04-25 05:16 34.02807 -118.34164 773 ft 116 kts 249°
2026-04-25 05:16 34.02517 -118.35108 765 ft 115 kts 238°
2026-04-25 05:17 34.02206 -118.35921 950 ft 106 kts 245°
2026-04-25 05:17 34.01845 -118.36768 812 ft 113 kts 223°
2026-04-25 05:17 34.01170 -118.37200 803 ft 118 kts 205°
2026-04-25 05:17 34.00373 -118.37603 676 ft 123 kts 197°
2026-04-25 05:18 33.99560 -118.37925 619 ft 124 kts 196°
2026-04-25 05:18 33.98732 -118.38247 511 ft 127 kts 195°
2026-04-25 05:18 33.97910 -118.38628 520 ft 119 kts 198°
2026-04-25 05:18 33.97138 -118.38968 496 ft 116 kts 205°
2026-04-25 05:19 33.96393 -118.39244 518 ft 116 kts 186°
2026-04-25 05:19 33.95621 -118.39613 375 ft 118 kts 202°
2026-04-25 05:19 33.94915 -118.39977 420 ft 104 kts 191°
2026-04-25 05:19 33.94234 -118.39694 297 ft 107 kts 149°
2026-04-25 05:20 33.93626 -118.39333 203 ft 73 kts 190°
2026-04-25 05:20 33.93415 -118.39524 109 ft 8 kts 273°
2026-04-25 05:20 33.93417 -118.39536 104 ft 0 kts 278°